| time (UTC) | temp F | wind direction | speed MPH | gust MPH | rain 1hr in | rain 24hr in | rain mn in | humidity % | barometer mb |
| 20260906191558 | 57 | 165 | 3.0 | 6.0 | 0.00 | 0.00 | 0.00 | 85 | 1032.4 |
| 20260906190058 | 57 | 215 | 2.0 | 6.0 | 0.00 | 0.00 | 0.00 | 85 | 1032.4 |
| 20260906184554 | 57 | 215 | 2.0 | 5.0 | 0.00 | 0.00 | 0.00 | 85 | 1032.5 |
| 20260906183046 | 57 | 196 | 3.0 | 8.0 | 0.00 | 0.00 | 0.00 | 85 | 1032.3 |
| 20260906181601 | 57 | 182 | 3.0 | 6.0 | 0.00 | 0.00 | 0.00 | 84 | 1032.2 |
| 20260906180053 | 58 | 193 | 2.0 | 7.0 | 0.00 | 0.00 | 0.00 | 84 | 1032.2 |
| 20260906174553 | 58 | 224 | 3.0 | 7.0 | 0.00 | 0.00 | 0.00 | 83 | 1032.1 |
| 20260906173059 | 58 | 182 | 3.0 | 8.0 | 0.00 | 0.00 | 0.00 | 82 | 1031.9 |
| 20260906171559 | 59 | 225 | 3.0 | 7.0 | 0.00 | 0.00 | 0.00 | 81 | 1031.5 |
| 20260906170059 | 59 | 251 | 2.0 | 6.0 | 0.00 | 0.00 | 0.00 | 80 | 1031.5 |
| 20260906164555 | 60 | 212 | 2.0 | 6.0 | 0.00 | 0.00 | 0.00 | 79 | 1031.4 |
| 20260906163050 | 60 | 188 | 3.0 | 8.0 | 0.00 | 0.00 | 0.00 | 79 | 1031.1 |
| 20260906161545 | 60 | 225 | 3.0 | 6.0 | 0.00 | 0.00 | 0.00 | 78 | 1030.8 |
| 20260906160056 | 61 | 238 | 4.0 | 7.0 | 0.00 | 0.00 | 0.00 | 77 | 1030.8 |
| 20260906154557 | 61 | 213 | 3.0 | 6.0 | 0.00 | 0.00 | 0.00 | 77 | 1030.9 |
| 20260906153100 | 61 | 255 | 4.0 | 9.0 | 0.00 | 0.00 | 0.00 | 76 | 1030.5 |
| 20260906151602 | 61 | 292 | 3.0 | 6.0 | 0.00 | 0.00 | 0.00 | 76 | 1030.5 |
| 20260906150052 | 61 | 216 | 2.0 | 5.0 | 0.00 | 0.00 | 0.00 | 77 | 1030.4 |
| 20260906144548 | 61 | 265 | 3.0 | 6.0 | 0.00 | 0.00 | 0.00 | 76 | 1030.4 |
| 20260906143106 | 61 | 238 | 3.0 | 5.0 | 0.00 | 0.00 | 0.00 | 76 | 1030.5 |
| 20260906141557 | 61 | 47 | 0.0 | 3.0 | 0.00 | 0.00 | 0.00 | 76 | 1030.4 |
| 20260906140054 | 61 | 178 | 0.0 | 3.0 | 0.00 | 0.00 | 0.00 | 77 | 1030.4 |
| 20260906134552 | 61 | 232 | 0.0 | 2.0 | 0.00 | 0.00 | 0.00 | 79 | 1030.3 |
| 20260906133050 | 61 | 0 | 0.0 | 3.0 | 0.00 | 0.00 | 0.00 | 79 | 1030.4 |
| 20260906131554 | 60 | 0 | 0.0 | 2.0 | 0.00 | 0.00 | 0.00 | 77 | 1030.4 |
| 20260906130051 | 60 | 227 | 3.0 | 6.0 | 0.00 | 0.00 | 0.00 | 78 | 1030.4 |
| 20260906124549 | 60 | 216 | 1.0 | 2.0 | 0.00 | 0.00 | 0.00 | 78 | 1030.5 |
| 20260906123048 | 60 | 186 | 0.0 | 7.0 | 0.00 | 0.00 | 0.00 | 78 | 1030.6 |
| 20260906121552 | 60 | 203 | 3.0 | 8.0 | 0.00 | 0.00 | 0.00 | 78 | 1030.8 |
| 20260906120052 | 60 | 179 | 4.0 | 10.0 | 0.00 | 0.00 | 0.00 | 78 | 1030.9 |
| 20260906114551 | 60 | 164 | 5.0 | 10.0 | 0.00 | 0.00 | 0.00 | 80 | 1031.0 |
| 20260906113058 | 60 | 188 | 7.0 | 16.0 | 0.00 | 0.00 | 0.00 | 79 | 1031.2 |
| 20260906111552 | 62 | 200 | 3.0 | 7.0 | 0.00 | 0.00 | 0.00 | 73 | 1031.2 |
| 20260906110051 | 61 | 158 | 0.0 | 4.0 | 0.00 | 0.00 | 0.00 | 73 | 1031.4 |
| 20260906104548 | 61 | 146 | 0.0 | 5.0 | 0.00 | 0.00 | 0.00 | 74 | 1031.6 |
| 20260906103046 | 60 | 254 | 1.0 | 5.0 | 0.00 | 0.00 | 0.00 | 76 | 1031.7 |
| 20260906101554 | 60 | 194 | 2.0 | 4.0 | 0.00 | 0.00 | 0.00 | 77 | 1031.9 |
| 20260906100051 | 60 | 261 | 1.0 | 4.0 | 0.00 | 0.00 | 0.00 | 75 | 1032.2 |
| 20260906094546 | 60 | 167 | 0.0 | 6.0 | 0.00 | 0.00 | 0.00 | 75 | 1032.3 |
| 20260906093046 | 60 | 219 | 2.0 | 7.0 | 0.00 | 0.00 | 0.00 | 75 | 1032.3 |
| 20260906091557 | 60 | 205 | 1.0 | 5.0 | 0.00 | 0.00 | 0.00 | 76 | 1032.4 |
| 20260906090057 | 59 | 221 | 2.0 | 5.0 | 0.00 | 0.00 | 0.00 | 78 | 1032.6 |
| 20260906084544 | 58 | 193 | 1.0 | 4.0 | 0.00 | 0.00 | 0.00 | 79 | 1033.0 |
| 20260906083056 | 58 | 67 | 2.0 | 7.0 | 0.00 | 0.00 | 0.00 | 79 | 1033.0 |
| 20260906081551 | 58 | 246 | 1.0 | 5.0 | 0.00 | 0.00 | 0.00 | 81 | 1032.9 |
| 20260906080051 | 57 | 158 | 2.0 | 6.0 | 0.00 | 0.00 | 0.00 | 81 | 1033.1 |
| 20260906074546 | 57 | 157 | 2.0 | 7.0 | 0.00 | 0.00 | 0.00 | 84 | 1033.1 |
| 20260906073046 | 56 | 213 | 2.0 | 5.0 | 0.00 | 0.00 | 0.00 | 84 | 1033.2 |
| 20260906071556 | 55 | 185 | 2.0 | 4.0 | 0.00 | 0.00 | 0.00 | 85 | 1033.1 |
| 20260906070054 | 55 | 216 | 2.0 | 6.0 | 0.00 | 0.00 | 0.00 | 85 | 1033.1 |
| 20260906064548 | 54 | 215 | 2.0 | 4.0 | 0.00 | 0.00 | 0.00 | 87 | 1033.0 |
| 20260906063101 | 54 | 221 | 2.0 | 5.0 | 0.00 | 0.00 | 0.00 | 87 | 1033.0 |
| 20260906061556 | 54 | 213 | 3.0 | 5.0 | 0.00 | 0.00 | 0.00 | 87 | 1032.8 |
| 20260906060055 | 53 | 188 | 2.0 | 5.0 | 0.00 | 0.00 | 0.00 | 88 | 1032.7 |
| 20260906054558 | 53 | 192 | 3.0 | 7.0 | 0.00 | 0.00 | 0.00 | 89 | 1032.3 |
| 20260906053058 | 53 | 214 | 3.0 | 8.0 | 0.00 | 0.00 | 0.00 | 89 | 1032.3 |
| 20260906051555 | 53 | 210 | 2.0 | 4.0 | 0.00 | 0.00 | 0.00 | 89 | 1032.1 |
| 20260906050113 | 52 | 205 | 3.0 | 6.0 | 0.00 | 0.00 | 0.00 | 89 | 1032.1 |
| 20260906044553 | 52 | 206 | 2.0 | 5.0 | 0.00 | 0.00 | 0.00 | 90 | 1032.1 |
| 20260906043107 | 52 | 191 | 2.0 | 4.0 | 0.00 | 0.00 | 0.00 | 90 | 1032.0 |
| 20260906041552 | 52 | 205 | 2.0 | 8.0 | 0.00 | 0.00 | 0.00 | 90 | 1031.9 |
| 20260906040107 | 52 | 230 | 2.0 | 7.0 | 0.00 | 0.00 | 0.00 | 90 | 1031.7 |
| 20260906034559 | 52 | 198 | 2.0 | 5.0 | 0.00 | 0.00 | 0.00 | 90 | 1031.7 |
| 20260906033058 | 52 | 194 | 1.0 | 4.0 | 0.00 | 0.00 | 0.00 | 90 | 1031.6 |
| 20260906031555 | 52 | 194 | 3.0 | 6.0 | 0.00 | 0.00 | 0.00 | 88 | 1031.5 |
| 20260906030132 | 53 | 211 | 2.0 | 7.0 | 0.00 | 0.00 | 0.00 | 87 | 1031.2 |
| 20260906024557 | 53 | 207 | 2.0 | 4.0 | 0.00 | 0.00 | 0.00 | 87 | 1031.1 |
| 20260906023058 | 53 | 206 | 3.0 | 6.0 | 0.00 | 0.00 | 0.00 | 87 | 1030.8 |
| 20260906021610 | 53 | 205 | 2.0 | 6.0 | 0.00 | 0.00 | 0.00 | 86 | 1030.8 |
| 20260906020100 | 53 | 221 | 2.0 | 5.0 | 0.00 | 0.00 | 0.00 | 86 | 1030.9 |
| 20260906014552 | 53 | 219 | 3.0 | 7.0 | 0.00 | 0.00 | 0.00 | 86 | 1030.8 |
| 20260906013100 | 53 | 198 | 2.0 | 5.0 | 0.00 | 0.00 | 0.00 | 86 | 1030.8 |
| 20260906011605 | 53 | 238 | 2.0 | 6.0 | 0.00 | 0.00 | 0.00 | 87 | 1030.7 |
| 20260906010100 | 53 | 218 | 3.0 | 6.0 | 0.00 | 0.00 | 0.00 | 88 | 1030.8 |
| 20260906004556 | 53 | 186 | 3.0 | 6.0 | 0.00 | 0.00 | 0.00 | 89 | 1030.6 |
| 20260906003108 | 54 | 212 | 3.0 | 7.0 | 0.00 | 0.00 | 0.00 | 88 | 1030.6 |
| 20260906001547 | 54 | 194 | 4.0 | 7.0 | 0.00 | 0.00 | 0.00 | 88 | 1030.7 |
| 20260906000057 | 54 | 234 | 3.0 | 6.0 | 0.00 | 0.00 | 0.00 | 88 | 1030.6 |
| 20260905234603 | 54 | 196 | 2.0 | 5.0 | 0.00 | 0.00 | 0.00 | 89 | 1030.9 |
| 20260905233049 | 54 | 196 | 2.0 | 5.0 | 0.00 | 0.00 | 0.00 | 89 | 1030.7 |
| 20260905231557 | 54 | 195 | 2.0 | 5.0 | 0.00 | 0.00 | 0.00 | 89 | 1030.8 |
| 20260905230058 | 54 | 184 | 1.0 | 5.0 | 0.00 | 0.00 | 0.00 | 89 | 1030.8 |
| 20260905224548 | 54 | 190 | 3.0 | 6.0 | 0.00 | 0.00 | 0.00 | 88 | 1030.8 |
| 20260905223057 | 54 | 175 | 3.0 | 7.0 | 0.00 | 0.00 | 0.00 | 88 | 1030.7 |
| 20260905221550 | 54 | 194 | 4.0 | 7.0 | 0.00 | 0.00 | 0.00 | 88 | 1030.7 |
| 20260905220052 | 55 | 192 | 2.0 | 5.0 | 0.00 | 0.00 | 0.00 | 86 | 1030.8 |
| 20260905214606 | 55 | 207 | 2.0 | 6.0 | 0.00 | 0.00 | 0.00 | 86 | 1030.5 |
| 20260905213103 | 55 | 217 | 1.0 | 5.0 | 0.00 | 0.00 | 0.00 | 86 | 1030.5 |
| 20260905211554 | 55 | 232 | 3.0 | 7.0 | 0.00 | 0.00 | 0.00 | 87 | 1030.3 |
| 20260905210052 | 55 | 192 | 2.0 | 7.0 | 0.00 | 0.00 | 0.00 | 87 | 1030.5 |
| 20260905204545 | 55 | 202 | 3.0 | 7.0 | 0.00 | 0.00 | 0.00 | 86 | 1030.7 |
| 20260905203055 | 55 | 150 | 2.0 | 5.0 | 0.00 | 0.00 | 0.00 | 86 | 1030.8 |
| 20260905201550 | 55 | 201 | 2.0 | 5.0 | 0.00 | 0.00 | 0.00 | 86 | 1030.9 |
| 20260905200054 | 55 | 194 | 3.0 | 6.0 | 0.00 | 0.00 | 0.00 | 86 | 1031.0 |
| 20260905194559 | 55 | 228 | 2.0 | 9.0 | 0.00 | 0.00 | 0.00 | 85 | 1030.9 |
| 20260905193054 | 55 | 227 | 2.0 | 7.0 | 0.00 | 0.00 | 0.00 | 85 | 1030.8 |